Year,Month,Day,Hour,Minute,Value (Times are PST for windgust in km/hr)
2010,07,13,00,00,8.10
2010,07,13,00,01,14.50
2010,07,13,00,02,8.10
2010,07,13,00,03,8.10
2010,07,13,00,04,4.80
2010,07,13,00,05,4.80
2010,07,13,00,06,9.60
2010,07,13,00,07,8.10
2010,07,13,00,08,17.70
2010,07,13,00,09,8.10
2010,07,13,00,10,6.40
2010,07,13,00,11,6.40
2010,07,13,00,12,11.30
2010,07,13,00,13,8.10
2010,07,13,00,14,6.40
2010,07,13,00,15,8.10
2010,07,13,00,16,6.40
2010,07,13,00,17,6.40
2010,07,13,00,18,8.10
2010,07,13,00,19,8.10
2010,07,13,00,20,6.40
2010,07,13,00,21,4.80
2010,07,13,00,22,4.80
2010,07,13,00,23,12.90
2010,07,13,00,24,11.30
2010,07,13,00,25,8.10
2010,07,13,00,26,11.30
2010,07,13,00,27,4.80
2010,07,13,00,28,4.80
2010,07,13,00,29,9.60
2010,07,13,00,30,6.40
2010,07,13,00,31,11.30
2010,07,13,00,32,11.30
2010,07,13,00,33,8.10
2010,07,13,00,34,8.10
2010,07,13,00,35,9.60
2010,07,13,00,36,11.30
2010,07,13,00,37,11.30
2010,07,13,00,38,11.30
2010,07,13,00,39,9.60
2010,07,13,00,40,6.40
2010,07,13,00,41,6.40
2010,07,13,00,42,11.30
2010,07,13,00,43,8.10
2010,07,13,00,44,14.50
2010,07,13,00,45,11.30
2010,07,13,00,46,11.30
2010,07,13,00,47,16.10
2010,07,13,00,48,11.30
2010,07,13,00,49,9.60
2010,07,13,00,50,17.70
2010,07,13,00,51,12.90
2010,07,13,00,52,11.30
2010,07,13,00,53,14.50
2010,07,13,00,54,14.50
2010,07,13,00,55,19.30
2010,07,13,00,56,16.10
2010,07,13,00,57,16.10
2010,07,13,00,58,11.30
2010,07,13,00,59,12.90
2010,07,13,01,00,12.90
2010,07,13,01,01,9.60
2010,07,13,01,02,12.90
2010,07,13,01,03,14.50
2010,07,13,01,04,11.30
2010,07,13,01,05,14.50
2010,07,13,01,06,16.10
2010,07,13,01,07,9.60
2010,07,13,01,08,14.50
2010,07,13,01,09,16.10
2010,07,13,01,10,14.50
2010,07,13,01,11,9.60
2010,07,13,01,12,11.30
2010,07,13,01,13,9.60
2010,07,13,01,14,11.30
2010,07,13,01,15,12.90
2010,07,13,01,16,16.10
2010,07,13,01,17,12.90
2010,07,13,01,18,11.30
2010,07,13,01,19,12.90
2010,07,13,01,20,11.30
2010,07,13,01,21,9.60
2010,07,13,01,22,16.10
2010,07,13,01,23,16.10
2010,07,13,01,24,16.10
2010,07,13,01,25,17.70
2010,07,13,01,26,14.50
2010,07,13,01,27,25.70
2010,07,13,01,28,16.10
2010,07,13,01,29,17.70
2010,07,13,01,30,14.50
2010,07,13,01,31,17.70
2010,07,13,01,32,16.10
2010,07,13,01,33,12.90
2010,07,13,01,34,14.50
2010,07,13,01,35,17.70
2010,07,13,01,36,17.70
2010,07,13,01,37,20.90
2010,07,13,01,38,9.60
2010,07,13,01,39,11.30
2010,07,13,01,40,17.70
2010,07,13,01,41,20.90
2010,07,13,01,42,22.50
2010,07,13,01,43,16.10
2010,07,13,01,44,12.90
2010,07,13,01,45,27.40
2010,07,13,01,46,14.50
2010,07,13,01,47,16.10
2010,07,13,01,48,16.10
2010,07,13,01,49,14.50
2010,07,13,01,50,17.70
2010,07,13,01,51,24.20
2010,07,13,01,52,16.10
2010,07,13,01,53,17.70
2010,07,13,01,54,12.90
2010,07,13,01,55,11.30
2010,07,13,01,56,14.50
2010,07,13,01,57,16.10
2010,07,13,01,58,8.10
2010,07,13,01,59,14.50
2010,07,13,02,00,11.30
2010,07,13,02,01,12.90
2010,07,13,02,02,11.30
2010,07,13,02,03,9.60
2010,07,13,02,04,6.40
2010,07,13,02,05,9.60
2010,07,13,02,06,12.90
2010,07,13,02,07,17.70
2010,07,13,02,08,12.90
2010,07,13,02,09,6.40
2010,07,13,02,10,11.30
2010,07,13,02,11,11.30
2010,07,13,02,12,12.90
2010,07,13,02,13,6.40
2010,07,13,02,14,4.80
2010,07,13,02,15,14.50
2010,07,13,02,16,16.10
2010,07,13,02,17,12.90
2010,07,13,02,18,11.30
2010,07,13,02,19,11.30
2010,07,13,02,20,6.40
2010,07,13,02,21,6.40
2010,07,13,02,22,6.40
2010,07,13,02,23,4.80
2010,07,13,02,24,8.10
2010,07,13,02,25,8.10
2010,07,13,02,26,12.90
2010,07,13,02,27,8.10
2010,07,13,02,28,11.30
2010,07,13,02,29,8.10
2010,07,13,02,30,11.30
2010,07,13,02,31,17.70
2010,07,13,02,32,11.30
2010,07,13,02,33,12.90
2010,07,13,02,34,16.10
2010,07,13,02,35,8.10
2010,07,13,02,36,9.60
2010,07,13,02,37,12.90
2010,07,13,02,38,11.30
2010,07,13,02,39,11.30
2010,07,13,02,40,11.30
2010,07,13,02,41,16.10
2010,07,13,02,42,12.90
2010,07,13,02,43,17.70
2010,07,13,02,44,16.10
2010,07,13,02,45,16.10
2010,07,13,02,46,16.10
2010,07,13,02,47,11.30
2010,07,13,02,48,14.50
2010,07,13,02,49,16.10
2010,07,13,02,50,14.50
2010,07,13,02,51,11.30
2010,07,13,02,52,9.60
2010,07,13,02,53,9.60
2010,07,13,02,54,11.30
2010,07,13,02,55,8.10
2010,07,13,02,56,9.60
2010,07,13,02,57,6.40
2010,07,13,02,58,6.40
2010,07,13,02,59,4.80
2010,07,13,03,00,6.40
2010,07,13,03,01,8.10
2010,07,13,03,02,9.60
2010,07,13,03,06,11.30
2010,07,13,03,07,14.50
2010,07,13,03,08,8.10
2010,07,13,03,09,6.40
2010,07,13,03,10,9.60
2010,07,13,03,11,8.10
2010,07,13,03,12,8.10
2010,07,13,03,13,9.60
2010,07,13,03,14,12.90
2010,07,13,03,15,11.30
2010,07,13,03,16,12.90
2010,07,13,03,17,11.30
2010,07,13,03,18,8.10
2010,07,13,03,19,12.90
2010,07,13,03,20,9.60
2010,07,13,03,21,16.10
2010,07,13,03,22,16.10
2010,07,13,03,23,6.40
2010,07,13,03,24,11.30
2010,07,13,03,25,6.40
2010,07,13,03,26,11.30
2010,07,13,03,27,12.90
2010,07,13,03,28,9.60
2010,07,13,03,29,14.50
2010,07,13,03,30,9.60
2010,07,13,03,31,11.30
2010,07,13,03,32,11.30
2010,07,13,03,33,8.10
2010,07,13,03,34,8.10
2010,07,13,03,35,8.10
2010,07,13,03,36,6.40
2010,07,13,03,37,9.60
2010,07,13,03,38,9.60
2010,07,13,03,39,6.40
2010,07,13,03,40,6.40
2010,07,13,03,41,8.10
2010,07,13,03,42,11.30
2010,07,13,03,43,8.10
2010,07,13,03,44,9.60
2010,07,13,03,45,8.10
2010,07,13,03,46,9.60
2010,07,13,03,47,4.80
2010,07,13,03,48,4.80
2010,07,13,03,49,9.60
2010,07,13,03,50,4.80
2010,07,13,03,51,6.40
2010,07,13,03,52,4.80
2010,07,13,03,53,11.30
2010,07,13,03,54,8.10
2010,07,13,03,55,4.80
2010,07,13,03,56,12.90
2010,07,13,03,57,16.10
2010,07,13,03,58,12.90
2010,07,13,03,59,3.20
2010,07,13,04,00,9.60
2010,07,13,04,01,6.40
2010,07,13,04,02,6.40
2010,07,13,04,03,11.30
2010,07,13,04,04,11.30
2010,07,13,04,05,8.10
2010,07,13,04,06,8.10
2010,07,13,04,07,6.40
2010,07,13,04,08,8.10
2010,07,13,04,09,9.60
2010,07,13,04,10,6.40
2010,07,13,04,11,8.10
2010,07,13,04,12,9.60
2010,07,13,04,13,6.40
2010,07,13,04,14,4.80
2010,07,13,04,15,4.80
2010,07,13,04,16,6.40
2010,07,13,04,17,4.80
2010,07,13,04,18,6.40
2010,07,13,04,19,8.10
2010,07,13,04,20,9.60
2010,07,13,04,21,4.80
2010,07,13,04,22,4.80
2010,07,13,04,23,11.30
2010,07,13,04,24,9.60
2010,07,13,04,25,6.40
2010,07,13,04,26,6.40
2010,07,13,04,27,8.10
2010,07,13,04,28,8.10
2010,07,13,04,29,9.60
2010,07,13,04,30,8.10
2010,07,13,04,31,6.40
2010,07,13,04,32,9.60
2010,07,13,04,33,11.30
2010,07,13,04,34,8.10
2010,07,13,04,35,6.40
2010,07,13,04,36,4.80
2010,07,13,04,37,4.80
2010,07,13,04,38,6.40
2010,07,13,04,39,8.10
2010,07,13,04,40,4.80
2010,07,13,04,41,6.40
2010,07,13,04,42,9.60
2010,07,13,04,43,4.80
2010,07,13,04,44,6.40
2010,07,13,04,45,9.60
2010,07,13,04,46,8.10
2010,07,13,04,47,6.40
2010,07,13,04,48,6.40
2010,07,13,04,49,8.10
2010,07,13,04,50,8.10
2010,07,13,04,51,4.80
2010,07,13,04,52,8.10
2010,07,13,04,53,3.20
2010,07,13,04,54,6.40
2010,07,13,04,55,8.10
2010,07,13,04,56,6.40
2010,07,13,04,57,6.40
2010,07,13,04,58,6.40
2010,07,13,04,59,4.80
2010,07,13,05,00,3.20
2010,07,13,05,01,6.40
2010,07,13,05,02,12.90
2010,07,13,05,03,6.40
2010,07,13,05,04,3.20
2010,07,13,05,05,9.60
2010,07,13,05,06,6.40
2010,07,13,05,07,8.10
2010,07,13,05,08,3.20
2010,07,13,05,09,3.20
2010,07,13,05,10,3.20
2010,07,13,05,11,3.20
2010,07,13,05,12,6.40
2010,07,13,05,13,4.80
2010,07,13,05,14,3.20
2010,07,13,05,15,3.20
2010,07,13,05,16,3.20
2010,07,13,05,17,4.80
2010,07,13,05,18,8.10
2010,07,13,05,19,8.10
2010,07,13,05,20,3.20
2010,07,13,05,21,1.60
2010,07,13,05,22,4.80
2010,07,13,05,23,4.80
2010,07,13,05,24,3.20
2010,07,13,05,25,3.20
2010,07,13,05,26,3.20
2010,07,13,05,27,3.20
2010,07,13,05,28,3.20
2010,07,13,05,29,3.20
2010,07,13,05,30,3.20
2010,07,13,05,31,3.20
2010,07,13,05,32,3.20
2010,07,13,05,33,4.80
2010,07,13,05,34,6.40
2010,07,13,05,35,4.80
2010,07,13,05,36,3.20
2010,07,13,05,37,4.80
2010,07,13,05,38,3.20
2010,07,13,05,39,1.60
2010,07,13,05,40,6.40
2010,07,13,05,41,6.40
2010,07,13,05,42,3.20
2010,07,13,05,43,3.20
2010,07,13,05,44,1.60
2010,07,13,05,46,1.60
2010,07,13,05,47,3.20
2010,07,13,05,48,3.20
2010,07,13,05,50,1.60
2010,07,13,05,53,3.20
2010,07,13,05,54,1.60
2010,07,13,05,56,3.20
2010,07,13,05,57,3.20
2010,07,13,05,58,1.60
2010,07,13,05,59,3.20
2010,07,13,06,00,4.80
2010,07,13,06,01,4.80
2010,07,13,06,02,3.20
2010,07,13,06,03,3.20
2010,07,13,06,04,3.20
2010,07,13,06,05,1.60
2010,07,13,06,06,4.80
2010,07,13,06,07,4.80
2010,07,13,06,08,4.80
2010,07,13,06,09,4.80
2010,07,13,06,10,4.80
2010,07,13,06,11,4.80
2010,07,13,06,12,4.80
2010,07,13,06,13,4.80
2010,07,13,06,14,3.20
2010,07,13,06,15,3.20
2010,07,13,06,16,8.10
2010,07,13,06,17,6.40
2010,07,13,06,18,8.10
2010,07,13,06,19,11.30
2010,07,13,06,20,16.10
2010,07,13,06,21,12.90
2010,07,13,06,22,12.90
2010,07,13,06,23,14.50
2010,07,13,06,24,12.90
2010,07,13,06,25,16.10
2010,07,13,06,26,9.60
2010,07,13,06,27,12.90
2010,07,13,06,28,12.90
2010,07,13,06,29,12.90
2010,07,13,06,30,14.50
2010,07,13,06,31,14.50
2010,07,13,06,32,12.90
2010,07,13,06,33,12.90
2010,07,13,06,34,12.90
2010,07,13,06,35,14.50
2010,07,13,06,36,12.90
2010,07,13,06,37,12.90
2010,07,13,06,38,11.30
2010,07,13,06,39,14.50
2010,07,13,06,40,12.90
2010,07,13,06,41,14.50
2010,07,13,06,42,14.50
2010,07,13,06,43,14.50
2010,07,13,06,44,12.90
2010,07,13,06,45,14.50
2010,07,13,06,46,14.50
2010,07,13,06,47,12.90
2010,07,13,06,48,14.50
2010,07,13,06,49,12.90
2010,07,13,06,50,14.50
2010,07,13,06,51,19.30
2010,07,13,06,52,14.50
2010,07,13,06,53,16.10
2010,07,13,06,54,14.50
2010,07,13,06,55,14.50
2010,07,13,06,56,14.50
2010,07,13,06,57,17.70
2010,07,13,06,58,12.90
2010,07,13,06,59,12.90
2010,07,13,07,00,16.10
2010,07,13,07,01,12.90
2010,07,13,07,02,11.30
2010,07,13,07,03,14.50
2010,07,13,07,04,17.70
2010,07,13,07,05,11.30
2010,07,13,07,06,11.30
2010,07,13,07,07,12.90
2010,07,13,07,08,17.70
2010,07,13,07,09,11.30
2010,07,13,07,10,16.10
2010,07,13,07,11,14.50
2010,07,13,07,12,16.10
2010,07,13,07,13,11.30
2010,07,13,07,14,9.60
2010,07,13,07,15,12.90
2010,07,13,07,16,14.50
2010,07,13,07,17,11.30
2010,07,13,07,18,6.40
2010,07,13,07,19,8.10
2010,07,13,07,20,8.10
2010,07,13,07,21,8.10
2010,07,13,07,22,9.60
2010,07,13,07,23,11.30
2010,07,13,07,24,12.90
2010,07,13,07,25,9.60
2010,07,13,07,26,4.80
2010,07,13,07,27,14.50
2010,07,13,07,28,9.60
2010,07,13,07,29,16.10
2010,07,13,07,30,16.10
2010,07,13,07,31,12.90
2010,07,13,07,32,9.60
2010,07,13,07,33,12.90
2010,07,13,07,34,6.40
2010,07,13,07,35,9.60
2010,07,13,07,36,8.10
2010,07,13,07,37,9.60
2010,07,13,07,38,9.60
2010,07,13,07,39,11.30
2010,07,13,07,40,9.60
2010,07,13,07,41,12.90
2010,07,13,07,42,8.10
2010,07,13,07,43,14.50
2010,07,13,07,44,14.50
2010,07,13,07,45,11.30
2010,07,13,07,46,11.30
2010,07,13,07,47,12.90
2010,07,13,07,48,16.10
2010,07,13,07,49,9.60
2010,07,13,07,50,12.90
2010,07,13,07,51,6.40
2010,07,13,07,52,11.30
2010,07,13,07,53,8.10
2010,07,13,07,54,9.60
2010,07,13,07,55,9.60
2010,07,13,07,56,14.50
2010,07,13,07,57,14.50
2010,07,13,07,58,11.30
2010,07,13,07,59,11.30
2010,07,13,08,00,11.30
2010,07,13,08,01,14.50
2010,07,13,08,02,12.90
2010,07,13,08,03,12.90
2010,07,13,08,04,11.30
2010,07,13,08,05,17.70
2010,07,13,08,06,11.30
2010,07,13,08,07,11.30
2010,07,13,08,08,9.60
2010,07,13,08,09,11.30
2010,07,13,08,10,8.10
2010,07,13,08,11,11.30
2010,07,13,08,12,9.60
2010,07,13,08,13,12.90
2010,07,13,08,14,9.60
2010,07,13,08,15,6.40
2010,07,13,08,16,8.10
2010,07,13,08,17,12.90
2010,07,13,08,18,12.90
2010,07,13,08,19,9.60
2010,07,13,08,20,9.60
2010,07,13,08,21,8.10
2010,07,13,08,22,8.10
2010,07,13,08,23,9.60
2010,07,13,08,24,11.30
2010,07,13,08,25,6.40
2010,07,13,08,26,4.80
2010,07,13,08,27,6.40
2010,07,13,08,28,8.10
2010,07,13,08,29,9.60
2010,07,13,08,30,9.60
2010,07,13,08,31,12.90
2010,07,13,08,32,11.30
2010,07,13,08,33,6.40
2010,07,13,08,34,8.10
2010,07,13,08,35,9.60
2010,07,13,08,36,9.60
2010,07,13,08,37,12.90
2010,07,13,08,38,12.90
2010,07,13,08,39,12.90
2010,07,13,08,40,11.30
2010,07,13,08,41,11.30
2010,07,13,08,42,12.90
2010,07,13,08,43,11.30
2010,07,13,08,44,6.40
2010,07,13,08,45,6.40
2010,07,13,08,46,9.60
2010,07,13,08,47,6.40
2010,07,13,08,48,6.40
2010,07,13,08,49,11.30
2010,07,13,08,50,6.40
2010,07,13,08,51,6.40
2010,07,13,08,52,6.40
2010,07,13,08,53,4.80
2010,07,13,08,54,6.40
2010,07,13,08,55,4.80
2010,07,13,08,56,9.60
2010,07,13,08,57,8.10
2010,07,13,08,58,8.10
2010,07,13,08,59,8.10
2010,07,13,09,00,8.10
2010,07,13,09,01,6.40
2010,07,13,09,02,3.20
2010,07,13,09,03,8.10
2010,07,13,09,04,6.40
2010,07,13,09,05,3.20
2010,07,13,09,06,3.20
2010,07,13,09,07,8.10
2010,07,13,09,08,9.60
2010,07,13,09,09,11.30
2010,07,13,09,10,9.60
2010,07,13,09,11,8.10
2010,07,13,09,12,8.10
2010,07,13,09,13,9.60
2010,07,13,09,14,12.90
2010,07,13,09,15,12.90
2010,07,13,09,16,11.30
2010,07,13,09,17,12.90
2010,07,13,09,18,14.50
2010,07,13,09,19,9.60
2010,07,13,09,20,11.30
2010,07,13,09,21,11.30
2010,07,13,09,22,11.30
2010,07,13,09,23,9.60
2010,07,13,09,24,11.30
2010,07,13,09,25,11.30
2010,07,13,09,26,8.10
2010,07,13,09,27,9.60
2010,07,13,09,28,6.40
2010,07,13,09,29,9.60
2010,07,13,09,30,11.30
2010,07,13,09,31,12.90
2010,07,13,09,32,12.90
2010,07,13,09,33,16.10
2010,07,13,09,34,12.90
2010,07,13,09,35,12.90
2010,07,13,09,36,6.40
2010,07,13,09,37,9.60
2010,07,13,09,38,9.60
2010,07,13,09,39,12.90
2010,07,13,09,40,12.90
2010,07,13,09,41,17.70
2010,07,13,09,42,17.70
2010,07,13,09,43,14.50
2010,07,13,09,44,14.50
2010,07,13,09,45,9.60
2010,07,13,09,46,9.60
2010,07,13,09,47,12.90
2010,07,13,09,48,12.90
2010,07,13,09,49,16.10
2010,07,13,09,50,19.30
2010,07,13,09,51,17.70
2010,07,13,09,52,16.10
2010,07,13,09,53,17.70
2010,07,13,09,54,17.70
2010,07,13,09,55,16.10
2010,07,13,09,56,16.10
2010,07,13,09,57,9.60
2010,07,13,09,58,14.50
2010,07,13,09,59,12.90
2010,07,13,10,00,17.70
2010,07,13,10,01,17.70
2010,07,13,10,02,16.10
2010,07,13,10,03,17.70
2010,07,13,10,04,16.10
2010,07,13,10,05,17.70
2010,07,13,10,06,12.90
2010,07,13,10,07,20.90
2010,07,13,10,08,16.10
2010,07,13,10,09,14.50
2010,07,13,10,10,17.70
2010,07,13,10,11,11.30
2010,07,13,10,12,17.70
2010,07,13,10,13,14.50
2010,07,13,10,14,16.10
2010,07,13,10,15,14.50
2010,07,13,10,16,11.30
2010,07,13,10,17,12.90
2010,07,13,10,18,12.90
2010,07,13,10,19,17.70
2010,07,13,10,20,16.10
2010,07,13,10,21,12.90
2010,07,13,10,22,16.10
2010,07,13,10,23,17.70
2010,07,13,10,24,14.50
2010,07,13,10,25,12.90
2010,07,13,10,26,9.60
2010,07,13,10,27,14.50
2010,07,13,10,28,14.50
2010,07,13,10,29,17.70
2010,07,13,10,30,17.70
2010,07,13,10,31,16.10
2010,07,13,10,32,12.90
2010,07,13,10,33,11.30
2010,07,13,10,34,11.30
2010,07,13,10,35,12.90
2010,07,13,10,36,16.10
2010,07,13,10,37,11.30
2010,07,13,10,38,16.10
2010,07,13,10,39,11.30
2010,07,13,10,40,16.10
2010,07,13,10,41,14.50
2010,07,13,10,42,9.60
2010,07,13,10,43,14.50
2010,07,13,10,44,14.50
2010,07,13,10,45,11.30
2010,07,13,10,46,11.30
2010,07,13,10,47,9.60
2010,07,13,10,48,9.60
2010,07,13,10,49,9.60
2010,07,13,10,50,11.30
2010,07,13,10,51,17.70
2010,07,13,10,52,14.50
2010,07,13,10,53,14.50
2010,07,13,10,54,12.90
2010,07,13,10,55,17.70
2010,07,13,10,56,9.60
2010,07,13,10,57,12.90
2010,07,13,10,58,16.10
2010,07,13,10,59,17.70
2010,07,13,11,00,8.10
2010,07,13,11,01,14.50
2010,07,13,11,02,14.50
2010,07,13,11,03,14.50
2010,07,13,11,04,12.90
2010,07,13,11,05,12.90
2010,07,13,11,06,14.50
2010,07,13,11,07,11.30
2010,07,13,11,08,9.60
2010,07,13,11,09,19.30
2010,07,13,11,10,20.90
2010,07,13,11,11,17.70
2010,07,13,11,12,14.50
2010,07,13,11,13,14.50
2010,07,13,11,14,14.50
2010,07,13,11,15,12.90
2010,07,13,11,16,12.90
2010,07,13,11,17,12.90
2010,07,13,11,18,12.90
2010,07,13,11,19,12.90
2010,07,13,11,20,14.50
2010,07,13,11,21,12.90
2010,07,13,11,22,12.90
2010,07,13,11,23,17.70
2010,07,13,11,24,14.50
2010,07,13,11,25,11.30
2010,07,13,11,26,16.10
2010,07,13,11,27,9.60
2010,07,13,11,28,11.30
2010,07,13,11,29,17.70
2010,07,13,11,30,14.50
2010,07,13,11,31,12.90
2010,07,13,11,32,14.50
2010,07,13,11,33,11.30
2010,07,13,11,34,12.90
2010,07,13,11,35,11.30
2010,07,13,11,36,16.10
2010,07,13,11,37,17.70
2010,07,13,11,38,12.90
2010,07,13,11,39,16.10
2010,07,13,11,40,14.50
2010,07,13,11,41,14.50
2010,07,13,11,42,14.50
2010,07,13,11,43,12.90
2010,07,13,11,44,12.90
2010,07,13,11,45,11.30
2010,07,13,11,46,8.10
2010,07,13,11,47,12.90
2010,07,13,11,48,12.90
2010,07,13,11,49,14.50
2010,07,13,11,50,14.50
2010,07,13,11,51,11.30
2010,07,13,11,52,11.30
2010,07,13,11,53,9.60
2010,07,13,11,54,8.10
2010,07,13,11,55,12.90
2010,07,13,11,56,16.10
2010,07,13,11,57,14.50
2010,07,13,11,58,14.50
2010,07,13,11,59,14.50
2010,07,13,12,00,14.50
2010,07,13,12,01,12.90
2010,07,13,12,02,14.50
2010,07,13,12,03,12.90
2010,07,13,12,04,14.50
2010,07,13,12,05,9.60
2010,07,13,12,06,12.90
2010,07,13,12,07,11.30
2010,07,13,12,08,11.30
2010,07,13,12,09,11.30
2010,07,13,12,10,12.90
2010,07,13,12,11,12.90
2010,07,13,12,12,14.50
2010,07,13,12,13,14.50
2010,07,13,12,14,12.90
2010,07,13,12,15,9.60
2010,07,13,12,16,9.60
2010,07,13,12,17,8.10
2010,07,13,12,18,9.60
2010,07,13,12,19,12.90
2010,07,13,12,20,11.30
2010,07,13,12,21,11.30
2010,07,13,12,22,9.60
2010,07,13,12,23,9.60
2010,07,13,12,24,11.30
2010,07,13,12,25,6.40
2010,07,13,12,26,11.30
2010,07,13,12,27,11.30
2010,07,13,12,28,9.60
2010,07,13,12,29,8.10
2010,07,13,12,30,4.80
2010,07,13,12,31,9.60
2010,07,13,12,32,14.50
2010,07,13,12,33,12.90
2010,07,13,12,34,11.30
2010,07,13,12,35,9.60
2010,07,13,12,36,9.60
2010,07,13,12,37,9.60
2010,07,13,12,38,8.10
2010,07,13,12,39,9.60
2010,07,13,12,40,9.60
2010,07,13,12,41,11.30
2010,07,13,12,42,9.60
2010,07,13,12,43,9.60
2010,07,13,12,44,11.30
2010,07,13,12,45,9.60
2010,07,13,12,46,9.60
2010,07,13,12,47,11.30
2010,07,13,12,48,12.90
2010,07,13,12,49,12.90
2010,07,13,12,50,9.60
2010,07,13,12,51,12.90
2010,07,13,12,52,12.90
2010,07,13,12,53,9.60
2010,07,13,12,54,9.60
2010,07,13,12,55,11.30
2010,07,13,12,56,9.60
2010,07,13,12,57,11.30
2010,07,13,12,58,12.90
2010,07,13,12,59,12.90
2010,07,13,13,00,12.90
2010,07,13,13,01,9.60
2010,07,13,13,02,9.60
2010,07,13,13,03,6.40
2010,07,13,13,04,9.60
2010,07,13,13,05,9.60
2010,07,13,13,06,12.90
2010,07,13,13,07,12.90
2010,07,13,13,08,11.30
2010,07,13,13,09,12.90
2010,07,13,13,10,12.90
2010,07,13,13,11,12.90
2010,07,13,13,12,14.50
2010,07,13,13,13,11.30
2010,07,13,13,14,8.10
2010,07,13,13,15,14.50
2010,07,13,13,16,11.30
2010,07,13,13,17,11.30
2010,07,13,13,18,14.50
2010,07,13,13,19,16.10
2010,07,13,13,20,17.70
2010,07,13,13,21,14.50
2010,07,13,13,22,12.90
2010,07,13,13,23,16.10
2010,07,13,13,24,14.50
2010,07,13,13,25,8.10
2010,07,13,13,26,12.90
2010,07,13,13,27,9.60
2010,07,13,13,28,11.30
2010,07,13,13,29,14.50
2010,07,13,13,30,12.90
2010,07,13,13,31,17.70
2010,07,13,13,32,12.90
2010,07,13,13,33,11.30
2010,07,13,13,34,9.60
2010,07,13,13,35,8.10
2010,07,13,13,36,12.90
2010,07,13,13,37,11.30
2010,07,13,13,38,12.90
2010,07,13,13,39,9.60
2010,07,13,13,40,12.90
2010,07,13,13,41,11.30
2010,07,13,13,42,12.90
2010,07,13,13,43,14.50
2010,07,13,13,44,19.30
2010,07,13,13,45,17.70
2010,07,13,13,46,12.90
2010,07,13,13,47,17.70
2010,07,13,13,48,14.50
2010,07,13,13,49,12.90
2010,07,13,13,50,11.30
2010,07,13,13,51,16.10
2010,07,13,13,52,16.10
2010,07,13,13,53,12.90
2010,07,13,13,54,14.50
2010,07,13,13,55,12.90
2010,07,13,13,56,12.90
2010,07,13,13,57,9.60
2010,07,13,13,58,14.50
2010,07,13,13,59,14.50
2010,07,13,14,00,12.90
2010,07,13,14,01,14.50
2010,07,13,14,02,11.30
2010,07,13,14,03,9.60
2010,07,13,14,04,14.50
2010,07,13,14,05,14.50
2010,07,13,14,06,14.50
2010,07,13,14,07,11.30
2010,07,13,14,08,12.90
2010,07,13,14,09,12.90
2010,07,13,14,10,12.90
2010,07,13,14,11,14.50
2010,07,13,14,12,9.60
2010,07,13,14,13,11.30
2010,07,13,14,14,8.10
2010,07,13,14,15,11.30
2010,07,13,14,16,16.10
2010,07,13,14,17,9.60
2010,07,13,14,18,11.30
2010,07,13,14,19,9.60
2010,07,13,14,20,9.60
2010,07,13,14,21,12.90
2010,07,13,14,22,11.30
2010,07,13,14,23,11.30
2010,07,13,14,24,9.60
2010,07,13,14,25,4.80
2010,07,13,14,26,6.40
2010,07,13,14,27,11.30
2010,07,13,14,28,11.30
2010,07,13,14,29,9.60
2010,07,13,14,30,12.90
2010,07,13,14,31,14.50
2010,07,13,14,32,12.90
2010,07,13,14,33,8.10
2010,07,13,14,34,9.60
2010,07,13,14,35,12.90
2010,07,13,14,36,8.10
2010,07,13,14,37,6.40
2010,07,13,14,38,8.10
2010,07,13,14,39,8.10
2010,07,13,14,40,9.60
2010,07,13,14,41,9.60
2010,07,13,14,42,12.90
2010,07,13,14,43,14.50
2010,07,13,14,44,12.90
2010,07,13,14,45,12.90
2010,07,13,14,46,11.30
2010,07,13,14,47,6.40
2010,07,13,14,48,9.60
2010,07,13,14,49,8.10
2010,07,13,14,50,9.60
2010,07,13,14,51,11.30
2010,07,13,14,52,12.90
2010,07,13,14,53,14.50
2010,07,13,14,54,12.90
2010,07,13,14,55,14.50
2010,07,13,14,56,12.90
2010,07,13,14,57,14.50
2010,07,13,14,58,12.90
2010,07,13,14,59,8.10
2010,07,13,15,00,12.90
2010,07,13,15,01,11.30
2010,07,13,15,02,12.90
2010,07,13,15,03,11.30
2010,07,13,15,04,9.60
2010,07,13,15,05,6.40
2010,07,13,15,06,9.60
2010,07,13,15,07,11.30
2010,07,13,15,08,8.10
2010,07,13,15,09,9.60
2010,07,13,15,10,9.60
2010,07,13,15,11,8.10
2010,07,13,15,12,9.60
2010,07,13,15,13,4.80
2010,07,13,15,14,6.40
2010,07,13,15,15,8.10
2010,07,13,15,16,11.30
2010,07,13,15,17,8.10
2010,07,13,15,18,4.80
2010,07,13,15,19,6.40
2010,07,13,15,20,6.40
2010,07,13,15,21,3.20
2010,07,13,15,22,9.60
2010,07,13,15,23,11.30
2010,07,13,15,24,6.40
2010,07,13,15,25,4.80
2010,07,13,15,26,4.80
2010,07,13,15,27,4.80
2010,07,13,15,28,9.60
2010,07,13,15,29,4.80
2010,07,13,15,30,11.30
2010,07,13,15,31,6.40
2010,07,13,15,32,8.10
2010,07,13,15,33,6.40
2010,07,13,15,34,4.80
2010,07,13,15,35,4.80
2010,07,13,15,36,3.20
2010,07,13,15,37,4.80
2010,07,13,15,38,4.80
2010,07,13,15,39,4.80
2010,07,13,15,40,8.10
2010,07,13,15,41,3.20
2010,07,13,15,42,9.60
2010,07,13,15,43,6.40
2010,07,13,15,44,4.80
2010,07,13,15,45,8.10
2010,07,13,15,46,6.40
2010,07,13,15,47,9.60
2010,07,13,15,48,8.10
2010,07,13,15,49,6.40
2010,07,13,15,50,4.80
2010,07,13,15,51,11.30
2010,07,13,15,52,4.80
2010,07,13,15,53,8.10
2010,07,13,15,54,8.10
2010,07,13,15,55,6.40
2010,07,13,15,56,4.80
2010,07,13,15,57,8.10
2010,07,13,15,58,8.10
2010,07,13,15,59,8.10
2010,07,13,16,00,6.40
2010,07,13,16,01,9.60
2010,07,13,16,02,11.30
2010,07,13,16,03,9.60
2010,07,13,16,04,8.10
2010,07,13,16,05,6.40
2010,07,13,16,06,4.80
2010,07,13,16,07,8.10
2010,07,13,16,08,3.20
2010,07,13,16,09,6.40
2010,07,13,16,10,8.10
2010,07,13,16,11,9.60
2010,07,13,16,12,6.40
2010,07,13,16,13,11.30
2010,07,13,16,14,9.60
2010,07,13,16,15,9.60
2010,07,13,16,16,12.90
2010,07,13,16,17,11.30
2010,07,13,16,18,8.10
2010,07,13,16,19,6.40
2010,07,13,16,20,3.20
2010,07,13,16,21,6.40
2010,07,13,16,22,4.80
2010,07,13,16,23,3.20
2010,07,13,16,24,9.60
2010,07,13,16,25,8.10
2010,07,13,16,26,6.40
2010,07,13,16,27,8.10
2010,07,13,16,28,8.10
2010,07,13,16,29,4.80
2010,07,13,16,30,8.10
2010,07,13,16,31,8.10
2010,07,13,16,32,6.40
2010,07,13,16,33,11.30
2010,07,13,16,34,6.40
2010,07,13,16,35,4.80
2010,07,13,16,36,8.10
2010,07,13,16,37,8.10
2010,07,13,16,38,3.20
2010,07,13,16,39,9.60
2010,07,13,16,40,9.60
2010,07,13,16,41,14.50
2010,07,13,16,42,14.50
2010,07,13,16,43,9.60
2010,07,13,16,44,8.10
2010,07,13,16,45,4.80
2010,07,13,16,46,4.80
2010,07,13,16,47,9.60
2010,07,13,16,48,8.10
2010,07,13,16,49,8.10
2010,07,13,16,50,6.40
2010,07,13,16,51,12.90
2010,07,13,16,52,11.30
2010,07,13,16,53,12.90
2010,07,13,16,54,11.30
2010,07,13,16,55,11.30
2010,07,13,16,56,12.90
2010,07,13,16,57,8.10
2010,07,13,16,58,8.10
2010,07,13,16,59,6.40
2010,07,13,17,00,12.90
2010,07,13,17,01,11.30
2010,07,13,17,02,8.10
2010,07,13,17,03,6.40
2010,07,13,17,04,9.60
2010,07,13,17,05,8.10
2010,07,13,17,06,12.90
2010,07,13,17,07,12.90
2010,07,13,17,08,14.50
2010,07,13,17,09,11.30
2010,07,13,17,10,9.60
2010,07,13,17,11,12.90
2010,07,13,17,12,14.50
2010,07,13,17,13,9.60
2010,07,13,17,14,16.10
2010,07,13,17,15,8.10
2010,07,13,17,16,12.90
2010,07,13,17,17,9.60
2010,07,13,17,18,9.60
2010,07,13,17,19,8.10
2010,07,13,17,20,6.40
2010,07,13,17,21,14.50
2010,07,13,17,22,11.30
2010,07,13,17,23,12.90
2010,07,13,17,24,8.10
2010,07,13,17,25,12.90
2010,07,13,17,26,6.40
2010,07,13,17,27,8.10
2010,07,13,17,28,11.30
2010,07,13,17,29,8.10
2010,07,13,17,30,16.10
2010,07,13,17,31,11.30
2010,07,13,17,32,6.40
2010,07,13,17,33,11.30
2010,07,13,17,34,16.10
2010,07,13,17,35,8.10
2010,07,13,17,36,12.90
2010,07,13,17,37,9.60
2010,07,13,17,38,11.30
2010,07,13,17,39,8.10
2010,07,13,17,40,11.30
2010,07,13,17,41,11.30
2010,07,13,17,42,16.10
2010,07,13,17,43,3.20
2010,07,13,17,44,1.60
2010,07,13,17,45,6.40
2010,07,13,17,46,6.40
2010,07,13,17,47,8.10
2010,07,13,17,48,8.10
2010,07,13,17,49,4.80